SL-16 DEB, 28436

Orbit data source: Space-Track

SL-16 DEB, 28436 is space debris in SSO originally from a launch on Mon, 10 Dec 2001 UTC launched from the Tyuratam Missile And Space Complex (TTMTR). Debris objects in space refer to the collection of defunct objects orbiting the Earth. Examples of debris include non-operational satellites, rocket bodies, and fragments generated from explosions, collisions, or faulty payload assembly.

Loading next visibility...
SL-16 DEB details
Identifier
28436, 2001-056K
Orbit
SSO
Last TLE update5 hours ago
Origin
Flag of CISKVR (CIS)
ManufacturerYuzhnoe
MissionSpacecraft
Bus & MotorSEP MOTOR COVER, Unknown motor
Mass~1 kg wet, ~1 kg dry
Launch date (UTC)
2001-12-10 (23 years ago)
Launch vehicleUnknown
Launch site
Tyuratam Missile And Space Complex (TTMTR)
Object type
Payload
Rocket body
Debris
Shape & HBRCone, 1 m
Radar Cross Section0.635 m², Small (<0.1 m²)

Expand to show TLE details & history

TLE from 5 hours ago
0 SL-16 DEB
1 28436U 01056K   24361.47975637  .00000138  00000-0  34801-3 0  9990
2 28436  99.4010 336.7584 0192522   4.3875 106.4501 13.28985652117243
Epoch: 2024-12-26T11:30Z
Definitive object data (Epoch: 2024-12-26T11:30:50.95Z)
Latitude65.39069°
Longitude-90.33388°
Altitude1,205.407 km
Speed7.236 km/s
True Right ascension11h 51m 20s
True Declination65° 16' 05"
Sunlit
Object was in daylight at TLE epoch
Visualization TLE readout
Latitude66.15156°
Longitude-89.3285°
Altitude1,204.857 km
Speed7.237 km/s
Apparent Right ascension06h 48m 34s
Apparent Declination31° 46' 53"
Sunlit
Object is in daylight
Visualization observer readout
Local Sidereal Time16:18:04
Azimuth328.167° NNW
Elevation-10.278°
Doppler factor1
Orbital elements
Apogee altitude1,292.798 km
Perigee altitude1,003.012 km
Semi-major axis7,526.042 km
Eccentricity0.0192522
Inclination99.401°
RAAN336.7584°
Arg. of periapsis4.3875°
True anomaly108.55114°
Mean anomaly106.4501°
Eccentric anomaly107.5021°
Mean motion3.32425 °/min
BSTAR0.00034801
Orbital period108.3 mins
Loading maneuver chart data...
Loading historical data...
Loading historical data...
Loading historical data...
Loading historical data...
Loading historical data...
Loading historical data...
Loading historical data...

SL-16 DEB Visibility forecast

Observer location: undefined°, undefined

Span
Click to sort rows by Start time (UTC) header in descending order
Start Az.
Max El. time (UTC)
Max El. Az.
Max El.
End time (UTC)
End Az.
11 mins2024-12-26 21:54:49.341Z141.229° SSE2024-12-26 22:00:49.341Z53.549° ENE37.475°2024-12-26 22:05:49.341Z357.57° N
8 mins2024-12-26 23:43:49.341Z223.152° SW2024-12-26 23:47:49.341Z271.432° WNW22.261°2024-12-26 23:51:49.341Z314.616° NW
13 mins2024-12-27 11:02:49.341Z25.106° NE2024-12-27 11:08:49.341Z105.334° ESE40.788°2024-12-27 11:15:49.341Z179.695° S
10 mins2024-12-27 12:50:49.341Z343.154° N2024-12-27 12:54:49.341Z300.773° NW25.568°2024-12-27 13:00:49.341Z244.34° WSW
|